This is the latest recevied weather packets stored in our database for station/object KE6YLF. If no packets are shown the sender has not sent any weather packets the latest 10 day(s).
| Time | Temp. | Humidity | Pressure | Rain* | Wind** | Luminosity | Snow |
|---|---|---|---|---|---|---|---|
| 1788470361 | 37.22° C | 35% | 1074.3 hPa | 0 mm | - | - | - |
| 1788470057 | 38.33° C | 35% | 1074.5 hPa | 0 mm | - | - | - |
| 1788469754 | 37.22° C | 35% | 1074.6 hPa | 0 mm | - | - | - |
| 1788469453 | 36.67° C | 37% | 1074.6 hPa | 0 mm | - | - | - |
| 1788469149 | 36.67° C | 37% | 1074.6 hPa | 0 mm | - | - | - |
| 1788468848 | 37.22° C | 35% | 1074.7 hPa | 0 mm | - | - | - |
| 1788468542 | 37.22° C | 34% | 1074.6 hPa | 0 mm | - | - | - |
| 1788468239 | 37.22° C | 35% | 1074.7 hPa | 0 mm | - | - | - |
| 1788467934 | 36.11° C | 38% | 1075 hPa | 0 mm | - | - | - |
| 1788467630 | 36.67° C | 37% | 1075.1 hPa | 0 mm | - | - | - |
| 1788467329 | 36.67° C | 38% | 1075.1 hPa | 0 mm | - | - | - |
| 1788467026 | 37.78° C | 36% | 1074.9 hPa | 0 mm | - | - | - |
| 1788466725 | 35.56° C | 38% | 1075.2 hPa | 0 mm | - | - | - |
| 1788466421 | 36.11° C | 37% | 1075.3 hPa | 0 mm | - | - | - |
| 1788466119 | 36.11° C | 39% | 1075.2 hPa | 0 mm | - | - | - |
| 1788465815 | 36.11° C | 39% | 1075.4 hPa | 0 mm | - | - | - |
| 1788465510 | 36.67° C | 38% | 1075.5 hPa | 0 mm | - | - | - |
| 1788465206 | 35.56° C | 40% | 1075.5 hPa | 0 mm | - | - | - |
| 1788464900 | 36.11° C | 39% | 1075.6 hPa | 0 mm | - | - | - |
| 1788464596 | 35.56° C | 37% | 1075.8 hPa | 0 mm | - | - | - |
| 1788464292 | 36.67° C | 35% | 1075.6 hPa | 0 mm | - | - | - |
| 1788463990 | 36.11° C | 39% | 1075.8 hPa | 0 mm | - | - | - |
| 1788463683 | 35.56° C | 40% | 1075.8 hPa | 0 mm | - | - | - |
| 1788463378 | 35.56° C | 38% | 1075.9 hPa | 0 mm | - | - | - |
| 1788463074 | 36.11° C | 37% | 1076 hPa | 0 mm | - | - | - |
* Rain latest hour (hover to see other rain measurements)
** Current wind speed in m/s (hover to see current wind gust speed)